Wind_Speed
30 30 30 30 31 31 31 32 32 31 30 29 28 28 28 28 27 26 25 25 26 26 26 25 24 23 23 22 22 20 18 18 17 17 18 18 19 19 19 18 17 16 15
34 34 34 34 34 35 36 36 36 36 35 34 33 32 32 31 30 29 28 28 28 28 28 28 28 28 28 28 26 25 23 22 21 20 20 19 20 20 21 20 20 18 17
38 38 38 37 38 39 39 40 40 41 41 39 38 37 36 35 34 32 31 30 31 31 31 31 31 31 31 31 31 30 28 25 24 23 22 21 21 21 22 22 22 21 20
40 40 41 41 42 42 42 43 44 44 44 43 43 42 40 37 36 36 34 33 33 33 33 33 33 33 34 34 34 33 32 29 27 26 24 23 23 23 23 23 23 23 22
41 41 42 42 42 42 43 43 45 44 44 43 42 41 41 41 38 37 36 36 35 35 35 34 35 34 35 36 36 36 36 34 31 28 27 25 25 25 25 25 24 24 24
39 40 41 41 42 43 43 44 43 44 42 40 39 37 36 37 36 35 37 37 37 36 35 35 35 35 36 36 37 37 37 37 34 31 29 27 27 26 27 27 26 26 25
39 40 41 42 43 43 43 44 44 43 42 41 39 37 35 35 33 34 35 36 36 35 36 36 36 35 35 36 37 37 37 37 35 33 31 29 28 27 27 28 28 27 27
38 40 41 42 42 42 42 43 43 43 42 41 39 36 33 32 30 30 32 34 35 35 34 34 34 34 34 35 35 35 35 36 35 33 31 30 28 27 27 28 29 29 28
38 39 40 40 41 41 40 40 40 40 38 36 35 34 31 28 28 28 30 31 32 33 32 32 32 32 32 32 33 33 34 34 34 33 31 30 28 28 28 29 29 30 29
38 38 39 39 40 40 39 37 36 35 34 32 32 32 31 29 28 28 29 31 31 31 31 31 31 31 31 31 30 30 32 33 33 33 31 30 29 28 28 28 29 30 30
38 38 39 39 39 39 38 37 36 35 33 32 32 33 33 32 31 30 30 31 32 32 30 31 31 32 30 29 29 29 31 33 33 33 31 30 29 27 27 27 28 29 29
38 38 39 39 40 40 40 40 39 38 37 36 35 35 35 35 34 33 33 34 34 33 32 32 31 31 30 29 30 29 30 32 32 32 30 29 28 27 27 27 27 28 28
37 37 38 39 40 41 41 42 42 41 40 39 38 38 37 37 37 36 36 36 36 35 33 33 31 30 30 31 32 32 33 33 33 32 30 29 28 28 27 26 26 26 27
36 36 36 37 39 40 41 42 42 42 42 41 41 40 39 39 38 37 36 36 36 36 34 32 30 30 30 31 32 32 33 35 34 33 32 31 30 29 28 27 26 26 27
36 36 35 35 36 37 39 40 41 42 42 42 42 41 40 39 38 37 36 36 35 34 32 30 29 28 28 28 29 31 33 35 35 34 33 32 31 30 30 30 29 29 30
36 36 35 34 34 34 35 37 38 39 40 40 40 39 38 37 36 36 34 33 32 31 29 27 27 26 26 27 28 29 31 32 33 33 32 32 32 31 31 31 31 32 32
37 36 35 34 33 32 32 33 34 35 36 36 36 35 35 34 33 32 31 29 28 27 26 25 25 25 25 25 27 28 29 31 31 31 31 31 31 31 32 32 33 33 34
37 36 35 33 31 30 30 30 30 31 31 31 32 32 31 31 30 28 27 26 25 25 25 25 24 25 24 24 24 24 26 28 30 30 29 29 29 30 31 32 33 34 35
37 36 34 32 30 28 27 26 26 26 27 27 27 27 27 26 26 25 24 24 24 25 25 25 25 24 24 22 22 22 22 24 25 26 27 27 28 29 30 31 33 34 35
36 35 34 32 29 27 26 24 22 21 21 21 21 22 23 23 24 25 24 23 24 23 23 22 23 23 22 21 21 21 20 21 22 23 25 26 27 29 30 32 34 36 37
36 34 33 31 28 26 25 23 21 19 19 18 19 20 21 22 24 24 23 23 22 21 21 21 21 20 19 19 19 19 19 20 21 23 24 26 27 29 31 32 34 36 38
36 33 32 30 27 26 24 22 20 18 16 16 17 18 20 21 22 22 21 21 20 20 21 20 19 18 17 17 17 18 18 19 20 21 23 25 27 29 31 33 36 38 40
36 33 31 29 27 25 23 20 19 17 16 15 16 17 19 20 20 20 19 18 18 18 18 17 16 15 15 16 16 16 16 17 19 20 21 23 25 27 29 31 34 36 39
37 34 31 29 26 24 22 20 18 16 15 13 12 12 13 15 16 16 15 15 16 16 16 14 13 13 14 13 13 13 14 15 17 18 19 21 23 26 29 31 34 37 39
39 34 31 29 26 23 21 19 17 14 12 11 11 10 10 11 12 13 13 14 13 12 12 11 10 10 10 10 11 12 13 14 15 17 19 21 23 26 29 31 34 36 39
40 36 32 29 25 22 20 18 15 12 10 8 8 9 10 11 12 12 11 11 11 10 10 9 9 9 9 9 9 10 11 12 14 15 17 20 22 25 28 31 33 35 37
Wind_Direction
269 269 270 271 273 274 274 274 274 273 271 269 268 269 269 269 269 269 270 271 272 272 271 269 269 269 269 271 273 273 275 277 277 276 274 270 268 266 264 262 260 258 255
265 265 266 267 269 270 271 271 271 269 267 266 265 265 266 267 268 268 269 270 270 271 272 271 270 269 268 266 268 269 270 272 272 272 272 270 268 265 264 262 260 259 257
264 264 265 265 266 268 269 269 269 267 266 264 263 262 262 263 263 265 266 268 269 269 270 271 271 270 269 266 265 265 265 266 266 266 267 267 267 265 263 261 260 259 258
266 265 264 265 266 269 271 272 273 272 270 269 267 265 263 262 262 262 263 266 267 268 268 270 271 271 269 267 264 262 260 261 261 262 263 264 264 264 263 261 259 258 258
269 268 268 267 267 269 272 274 275 275 275 274 272 269 266 264 262 262 261 262 264 265 267 269 271 271 270 267 264 261 258 256 257 258 260 262 262 262 262 260 259 258 257
278 276 274 272 271 272 273 275 278 278 279 278 276 273 270 268 265 263 261 261 262 264 266 268 270 271 271 269 265 261 258 253 253 255 257 260 261 261 260 258 258 257 256
283 280 278 277 276 274 275 274 278 280 280 282 279 275 272 271 269 265 263 262 264 265 266 269 269 270 271 269 265 261 256 250 249 252 254 257 258 260 259 255 255 254 254
285 281 279 278 277 276 275 276 277 279 280 281 279 276 273 272 269 270 265 265 265 267 268 268 270 270 271 269 264 259 254 247 246 248 252 256 257 258 256 254 252 252 251
285 281 279 277 277 277 277 277 277 278 279 279 278 277 276 273 273 272 270 269 268 269 270 271 272 272 272 268 262 257 251 245 245 246 249 254 256 256 255 253 251 249 248
289 284 280 278 277 277 276 276 276 277 277 277 278 279 280 277 277 275 274 273 273 273 271 271 272 272 272 265 258 253 248 244 245 247 250 253 255 255 254 252 250 248 246
292 287 282 279 276 274 274 273 273 275 276 276 276 277 278 278 279 277 275 275 275 274 274 273 272 272 270 263 253 249 245 244 246 247 249 251 252 252 252 250 249 247 246
297 290 284 279 276 274 272 271 271 273 273 274 274 274 275 276 277 275 274 273 274 273 273 273 271 271 266 259 252 247 245 245 245 246 248 248 248 248 248 248 247 246 244
305 297 290 283 277 274 272 270 270 271 272 272 273 273 274 274 274 273 272 271 271 271 271 270 268 267 262 257 251 248 246 246 244 245 247 247 246 244 245 245 244 243 242
311 305 298 289 282 276 273 271 270 270 270 271 272 272 273 273 272 271 270 269 269 269 268 267 265 262 259 257 252 249 246 245 243 243 244 245 243 242 242 241 240 241 241
315 310 304 297 288 281 276 273 271 271 270 271 270 270 271 270 269 268 268 267 266 265 263 260 259 257 255 254 252 250 248 246 243 242 242 243 242 240 240 240 238 238 239
317 313 308 303 295 287 281 277 274 272 271 270 269 268 267 266 265 265 264 263 261 260 257 254 251 251 253 254 254 252 250 247 243 240 240 241 241 240 241 241 240 239 239
317 315 312 306 300 292 286 282 278 274 272 269 267 265 264 263 262 262 260 257 255 252 249 245 243 246 253 255 254 252 251 247 242 239 239 241 242 244 243 244 244 244 244
315 315 314 310 304 297 293 287 282 277 273 269 264 262 260 259 256 255 252 249 246 242 239 237 241 245 249 253 253 253 250 247 244 241 240 242 245 246 248 249 250 249 249
312 314 313 312 308 303 300 294 288 281 273 267 262 258 256 253 250 246 243 241 237 237 236 236 240 242 245 246 249 250 249 248 247 246 246 246 248 250 251 253 254 254 254
307 310 311 310 308 304 303 299 293 286 276 266 259 254 250 246 242 240 239 236 231 231 233 236 240 242 243 245 245 245 247 248 250 251 252 253 255 256 256 256 257 257 257
302 304 306 307 306 305 303 299 296 288 277 267 256 251 247 241 240 236 234 229 226 231 232 235 237 238 240 241 243 245 248 251 254 256 258 259 260 261 261 261 261 261 261
295 298 301 301 301 303 302 298 293 288 277 265 256 251 244 240 238 234 232 229 228 230 231 234 234 238 239 241 245 249 252 255 258 261 263 265 265 266 266 266 266 265 265
287 290 293 295 295 296 296 294 289 283 277 266 260 254 248 240 235 235 233 232 232 230 229 231 232 235 239 243 248 252 256 259 263 266 267 269 270 270 271 271 270 270 269
278 281 285 286 287 289 290 289 286 281 273 265 259 249 239 236 235 231 230 229 225 223 221 224 229 235 240 244 248 254 260 264 268 272 274 276 278 278 278 277 276 275 273
269 271 275 277 278 280 283 284 282 276 267 259 247 237 229 225 221 216 213 211 210 213 215 217 223 227 232 241 250 257 263 269 275 280 284 287 288 288 286 284 283 281 279
259 261 265 267 268 270 273 274 274 264 252 239 225 216 207 202 197 196 197 199 200 202 205 209 215 224 234 244 253 263 271 279 285 290 293 295 297 296 295 293 291 289 287
Height
5878 5877 5877 5876 5874 5873 5872 5871 5871 5870 5869 5869 5868 5867 5866 5866 5866 5865 5865 5865 5865 5865 5865 5865 5865 5866 5866 5866 5866 5867 5867 5868 5869 5870 5871 5872 5873 5874 5875 5875 5876 5876 5876
5870 5869 5869 5868 5867 5865 5864 5863 5862 5861 5860 5859 5859 5859 5859 5859 5859 5858 5858 5858 5858 5858 5858 5858 5859 5859 5860 5861 5861 5862 5862 5863 5864 5865 5866 5867 5868 5869 5871 5872 5872 5873 5873
5861 5860 5859 5859 5858 5856 5855 5854 5853 5851 5850 5849 5849 5849 5850 5850 5850 5850 5850 5850 5851 5851 5851 5851 5851 5852 5853 5854 5855 5855 5856 5857 5858 5859 5860 5862 5863 5864 5865 5867 5868 5869 5870
5851 5850 5850 5849 5848 5847 5846 5845 5844 5842 5841 5841 5840 5840 5840 5841 5841 5841 5842 5842 5842 5843 5843 5843 5843 5844 5845 5846 5847 5848 5849 5850 5852 5853 5854 5855 5857 5858 5859 5861 5862 5864 5865
5841 5841 5840 5839 5838 5838 5837 5836 5835 5833 5832 5832 5831 5831 5831 5832 5832 5832 5833 5833 5834 5835 5835 5836 5836 5836 5836 5837 5838 5840 5841 5843 5844 5846 5847 5849 5850 5852 5853 5855 5857 5858 5860
5833 5832 5832 5831 5830 5829 5828 5827 5826 5824 5823 5822 5821 5821 5822 5822 5822 5823 5824 5824 5825 5826 5827 5828 5828 5827 5827 5828 5829 5830 5832 5834 5836 5839 5840 5842 5843 5845 5846 5848 5850 5852 5854
5826 5824 5823 5822 5821 5820 5819 5818 5817 5816 5815 5813 5812 5812 5812 5813 5813 5813 5814 5815 5816 5818 5818 5819 5819 5819 5818 5818 5819 5820 5822 5825 5828 5830 5832 5834 5836 5837 5839 5841 5843 5845 5847
5817 5815 5814 5812 5811 5810 5809 5809 5807 5806 5806 5804 5803 5802 5802 5804 5803 5804 5804 5805 5807 5808 5809 5809 5810 5810 5809 5808 5809 5810 5812 5815 5819 5822 5825 5826 5828 5830 5831 5833 5835 5837 5840
5808 5806 5804 5802 5801 5800 5799 5798 5797 5797 5797 5796 5794 5793 5793 5793 5794 5795 5795 5796 5797 5799 5800 5800 5800 5800 5799 5799 5799 5801 5804 5807 5810 5814 5817 5819 5820 5822 5824 5825 5827 5830 5832
5798 5796 5794 5792 5791 5789 5789 5788 5788 5787 5787 5787 5786 5785 5785 5785 5786 5787 5788 5787 5788 5790 5791 5791 5791 5791 5790 5790 5791 5793 5796 5799 5803 5806 5808 5810 5812 5814 5816 5817 5819 5822 5824
5787 5785 5783 5782 5781 5780 5779 5779 5778 5778 5778 5778 5778 5778 5777 5777 5777 5778 5779 5780 5780 5780 5781 5782 5782 5782 5782 5782 5783 5785 5788 5791 5795 5798 5800 5802 5804 5806 5808 5809 5812 5814 5816
5777 5774 5772 5771 5770 5769 5768 5768 5768 5768 5768 5768 5769 5769 5768 5768 5768 5769 5770 5771 5771 5771 5772 5772 5772 5773 5773 5774 5775 5778 5780 5783 5786 5789 5792 5794 5797 5798 5800 5802 5804 5806 5808
5767 5764 5761 5759 5758 5757 5757 5757 5757 5757 5757 5757 5758 5758 5758 5758 5758 5759 5760 5760 5761 5761 5762 5763 5763 5764 5765 5766 5767 5769 5772 5775 5778 5781 5784 5786 5789 5791 5793 5794 5796 5798 5801
5759 5755 5751 5749 5746 5745 5745 5745 5745 5745 5745 5746 5746 5746 5747 5747 5747 5748 5749 5750 5750 5751 5752 5753 5754 5755 5756 5757 5759 5761 5763 5766 5769 5772 5775 5778 5780 5783 5785 5787 5789 5791 5793
5751 5747 5743 5739 5736 5734 5733 5733 5733 5733 5733 5733 5734 5734 5735 5736 5736 5737 5738 5739 5741 5741 5743 5744 5746 5746 5747 5749 5751 5753 5755 5757 5760 5763 5766 5769 5772 5775 5777 5779 5781 5784 5786
5743 5739 5734 5731 5727 5725 5723 5721 5721 5721 5721 5721 5721 5722 5723 5724 5725 5726 5727 5729 5730 5732 5734 5736 5737 5738 5740 5742 5743 5745 5747 5749 5752 5755 5758 5761 5764 5766 5769 5771 5773 5775 5777
5736 5731 5726 5722 5719 5715 5713 5711 5710 5710 5709 5709 5710 5711 5712 5713 5714 5716 5718 5719 5721 5723 5725 5727 5729 5731 5733 5735 5736 5738 5739 5741 5744 5747 5750 5753 5756 5758 5760 5763 5765 5767 5769
5728 5723 5719 5715 5711 5708 5705 5702 5701 5700 5699 5699 5699 5700 5701 5703 5705 5707 5709 5711 5713 5715 5718 5720 5722 5725 5727 5728 5729 5731 5733 5735 5737 5740 5742 5745 5747 5750 5752 5755 5757 5758 5760
5720 5716 5712 5708 5704 5701 5697 5694 5692 5691 5690 5690 5690 5691 5693 5695 5697 5699 5701 5704 5706 5709 5711 5714 5716 5718 5720 5721 5723 5725 5727 5729 5731 5733 5735 5738 5740 5742 5744 5746 5748 5749 5751
5713 5709 5705 5701 5698 5694 5691 5688 5686 5684 5683 5682 5683 5684 5685 5687 5690 5692 5694 5697 5699 5703 5705 5708 5710 5712 5713 5715 5717 5719 5721 5723 5725 5727 5729 5731 5732 5734 5736 5737 5739 5740 5741
5705 5701 5698 5695 5691 5688 5685 5683 5681 5678 5677 5676 5677 5678 5679 5681 5683 5686 5688 5691 5693 5696 5699 5701 5704 5706 5708 5710 5712 5714 5715 5717 5719 5721 5722 5724 5725 5726 5726 5727 5728 5729 5729
5696 5693 5691 5688 5685 5682 5680 5677 5675 5674 5672 5672 5672 5673 5674 5676 5678 5680 5683 5685 5688 5691 5693 5696 5698 5701 5703 5705 5707 5708 5710 5712 5713 5715 5715 5716 5717 5717 5717 5717 5717 5717 5717
5686 5685 5683 5681 5679 5676 5674 5672 5670 5669 5668 5667 5668 5668 5669 5670 5673 5675 5678 5680 5683 5686 5688 5691 5694 5696 5698 5700 5702 5703 5705 5706 5707 5708 5708 5709 5709 5708 5708 5707 5707 5706 5706
5675 5675 5674 5673 5672 5670 5668 5667 5665 5664 5663 5663 5663 5664 5665 5667 5669 5671 5673 5676 5679 5682 5684 5687 5689 5692 5694 5696 5697 5699 5700 5701 5701 5701 5702 5701 5700 5700 5699 5697 5696 5694 5693
5663 5664 5664 5664 5664 5663 5662 5661 5660 5659 5658 5658 5659 5660 5662 5663 5665 5667 5670 5673 5676 5678 5681 5684 5686 5688 5690 5692 5693 5694 5695 5696 5696 5696 5695 5694 5692 5690 5689 5687 5684 5682 5679
5649 5651 5654 5655 5656 5656 5656 5656 5655 5654 5654 5655 5656 5657 5659 5661 5663 5665 5668 5671 5674 5676 5679 5681 5683 5685 5687 5688 5689 5690 5691 5691 5690 5690 5688 5687 5685 5682 5679 5676 5673 5670 5666